Terug naar catalogus

BRITE-U UNIBRITE

ActiefWetenschapSSO
NORAD 39092·PAYLOAD·🇮🇱 Israel

Gelanceerd Feb 25, 2013 vanaf Satish Dhawan Space Centre

Loading…

Volgende Passages (komende 24 uur)

TLE

VersSource: Space-Track

Epoch: Sep 14, 2026, 10:50 UTC

1 39092U 13009G   26257.45140510  .00000093  00000-0  46238-4 0  9997
2 39092  98.4086  74.8431 0008589 337.5943  22.4867 14.36442435709800

Volg BRITE-U UNIBRITE in realtime met AllMySat

Download on the App Store